Location: Drummondville
(45.8830°N, 72.4830°W)
Time: 12:54:52
(UTC-05:00)

ISS - Pass Details

Date: 14 November 2017
Orbit: 402 x 407 km, 51.6° (Epoch: 20 November)

Event Time Altitude Azimuth Distance (km) Brightness Sun altitude
Exits shadow 05:56:06 14° 284° (WNW) 1,251 -2.0 -9.4°
Maximum altitude 05:58:38 40° 216° (SW) 608 -3.1 -9.0°
Drops below altitude 10° 06:01:42 10° 146° (SE) 1,448 -0.2 -8.5°
Sets 06:03:50 0° 138° (SE) 2,304 1.2 -8.1°
